Location: Unspecified
(0.0000°N, 0.0000°E)
Time: 19:01:56
(UTC+00:00)

Vanguard 2 - Pass Details

Date: 27 November 2019
Orbit: 553 x 2938 km, 32.9° (Epoch: 08 December)

Event Time Altitude Azimuth Distance (km) Brightness Sun altitude
Rises 13:04:08 0° 318° (NW) 3,343 10.8 61.8°
Reaches altitude 10° 13:07:08 10° 327° (NNW) 2,160 9.9 61.3°
Maximum altitude 13:11:21 32° 31° (NNE) 1,016 8.3 60.6°
Drops below altitude 10° 13:14:56 10° 97° (E) 1,820 9.4 60.0°
Sets 13:17:15 0° 107° (ESE) 2,726 10.2 59.6°
